Year,Month,Day,Hour,Minute,Value (Times are PST for temperature in C)
2016,12,09,00,00,0.80
2016,12,09,00,01,0.80
2016,12,09,00,02,0.80
2016,12,09,00,03,0.70
2016,12,09,00,04,0.70
2016,12,09,00,05,0.60
2016,12,09,00,06,0.60
2016,12,09,00,07,0.50
2016,12,09,00,08,0.50
2016,12,09,00,09,0.50
2016,12,09,00,10,0.40
2016,12,09,00,11,0.40
2016,12,09,00,12,0.40
2016,12,09,00,13,0.40
2016,12,09,00,14,0.40
2016,12,09,00,15,0.40
2016,12,09,00,16,0.40
2016,12,09,00,17,0.40
2016,12,09,00,18,0.40
2016,12,09,00,19,0.30
2016,12,09,00,20,0.30
2016,12,09,00,21,0.30
2016,12,09,00,22,0.30
2016,12,09,00,23,0.30
2016,12,09,00,24,0.30
2016,12,09,00,25,0.30
2016,12,09,00,26,0.30
2016,12,09,00,27,0.30
2016,12,09,00,28,0.30
2016,12,09,00,29,0.30
2016,12,09,00,30,0.30
2016,12,09,00,31,0.30
2016,12,09,00,32,0.30
2016,12,09,00,33,0.30
2016,12,09,00,34,0.30
2016,12,09,00,35,0.30
2016,12,09,00,36,0.30
2016,12,09,00,37,0.30
2016,12,09,00,38,0.30
2016,12,09,00,39,0.30
2016,12,09,00,40,0.20
2016,12,09,00,41,0.20
2016,12,09,00,42,0.20
2016,12,09,00,43,0.20
2016,12,09,00,44,0.20
2016,12,09,00,45,0.20
2016,12,09,00,46,0.10
2016,12,09,00,47,0.10
2016,12,09,00,48,0.10
2016,12,09,00,49,0.00
2016,12,09,00,50,0.00
2016,12,09,00,51,-0.10
2016,12,09,00,52,-0.10
2016,12,09,00,53,-0.10
2016,12,09,00,54,-0.10
2016,12,09,00,55,-0.20
2016,12,09,00,56,-0.30
2016,12,09,00,57,-0.30
2016,12,09,00,58,-0.40
2016,12,09,00,59,-0.40
2016,12,09,01,00,-0.50
2016,12,09,01,01,-0.50
2016,12,09,01,02,-0.60
2016,12,09,01,03,-0.70
2016,12,09,01,04,-0.70
2016,12,09,01,05,-0.70
2016,12,09,01,06,-0.80
2016,12,09,01,07,-0.80
2016,12,09,01,08,-0.80
2016,12,09,01,09,-0.90
2016,12,09,01,10,-0.90
2016,12,09,01,11,-1.00
2016,12,09,01,12,-1.00
2016,12,09,01,13,-1.00
2016,12,09,01,14,-1.00
2016,12,09,01,15,-1.10
2016,12,09,01,16,-1.10
2016,12,09,01,17,-1.10
2016,12,09,01,18,-1.10
2016,12,09,01,19,-1.10
2016,12,09,01,20,-1.10
2016,12,09,01,21,-1.20
2016,12,09,01,22,-1.20
2016,12,09,01,23,-1.20
2016,12,09,01,24,-1.20
2016,12,09,01,25,-1.20
2016,12,09,01,26,-1.20
2016,12,09,01,27,-1.20
2016,12,09,01,28,-1.20
2016,12,09,01,29,-1.20
2016,12,09,01,30,-1.20
2016,12,09,01,31,-1.20
2016,12,09,01,32,-1.20
2016,12,09,01,33,-1.20
2016,12,09,01,34,-1.20
2016,12,09,01,35,-1.20
2016,12,09,01,36,-1.20
2016,12,09,01,37,-1.20
2016,12,09,01,38,-1.20
2016,12,09,01,39,-1.20
2016,12,09,01,40,-1.20
2016,12,09,01,41,-1.20
2016,12,09,01,42,-1.10
2016,12,09,01,43,-1.10
2016,12,09,01,44,-1.10
2016,12,09,01,45,-1.10
2016,12,09,01,46,-1.10
2016,12,09,01,47,-1.10
2016,12,09,01,48,-1.10
2016,12,09,01,49,-1.10
2016,12,09,01,50,-1.10
2016,12,09,01,51,-1.10
2016,12,09,01,52,-1.10
2016,12,09,01,53,-1.10
2016,12,09,01,54,-1.10
2016,12,09,01,55,-1.10
2016,12,09,01,56,-1.10
2016,12,09,01,57,-1.10
2016,12,09,01,58,-1.10
2016,12,09,01,59,-1.10
2016,12,09,02,00,-1.10
2016,12,09,02,01,-1.10
2016,12,09,02,02,-1.10
2016,12,09,02,03,-1.00
2016,12,09,02,04,-1.00
2016,12,09,02,05,-1.00
2016,12,09,02,06,-1.00
2016,12,09,02,07,-1.00
2016,12,09,02,08,-1.00
2016,12,09,02,09,-1.00
2016,12,09,02,10,-1.00
2016,12,09,02,11,-1.00
2016,12,09,02,12,-1.00
2016,12,09,02,13,-1.00
2016,12,09,02,14,-0.90
2016,12,09,02,15,-0.90
2016,12,09,02,16,-0.90
2016,12,09,02,17,-0.90
2016,12,09,02,18,-0.90
2016,12,09,02,19,-0.90
2016,12,09,02,20,-0.90
2016,12,09,02,21,-0.90
2016,12,09,02,22,-0.90
2016,12,09,02,23,-0.90
2016,12,09,02,24,-0.90
2016,12,09,02,25,-0.90
2016,12,09,02,26,-0.90
2016,12,09,02,27,-0.90
2016,12,09,02,28,-0.80
2016,12,09,02,29,-0.80
2016,12,09,02,30,-0.80
2016,12,09,02,31,-0.80
2016,12,09,02,32,-0.80
2016,12,09,02,33,-0.80
2016,12,09,02,34,-0.80
2016,12,09,02,35,-0.80
2016,12,09,02,36,-0.80
2016,12,09,02,37,-0.70
2016,12,09,02,38,-0.70
2016,12,09,02,39,-0.70
2016,12,09,02,40,-0.70
2016,12,09,02,41,-0.70
2016,12,09,02,42,-0.70
2016,12,09,02,43,-0.70
2016,12,09,02,44,-0.70
2016,12,09,02,45,-0.70
2016,12,09,02,46,-0.70
2016,12,09,02,47,-0.70
2016,12,09,02,48,-0.70
2016,12,09,02,49,-0.70
2016,12,09,02,50,-0.70
2016,12,09,02,51,-0.60
2016,12,09,02,52,-0.60
2016,12,09,02,53,-0.60
2016,12,09,02,54,-0.60
2016,12,09,02,55,-0.60
2016,12,09,02,56,-0.50
2016,12,09,02,57,-0.50
2016,12,09,02,58,-0.50
2016,12,09,02,59,-0.50
2016,12,09,03,00,-0.40
2016,12,09,03,01,-0.40
2016,12,09,03,02,-0.40
2016,12,09,03,03,-0.40
2016,12,09,03,04,-0.30
2016,12,09,03,05,-0.30
2016,12,09,03,06,-0.30
2016,12,09,03,07,-0.30
2016,12,09,03,08,-0.30
2016,12,09,03,09,-0.30
2016,12,09,03,10,-0.30
2016,12,09,03,11,-0.30
2016,12,09,03,12,-0.30
2016,12,09,03,13,-0.30
2016,12,09,03,14,-0.30
2016,12,09,03,15,-0.30
2016,12,09,03,16,-0.30
2016,12,09,03,17,-0.30
2016,12,09,03,18,-0.30
2016,12,09,03,19,-0.30
2016,12,09,03,20,-0.30
2016,12,09,03,21,-0.30
2016,12,09,03,22,-0.30
2016,12,09,03,23,-0.30
2016,12,09,03,24,-0.30
2016,12,09,03,25,-0.20
2016,12,09,03,26,-0.20
2016,12,09,03,27,-0.20
2016,12,09,03,28,-0.20
2016,12,09,03,29,-0.20
2016,12,09,03,30,-0.20
2016,12,09,03,31,-0.20
2016,12,09,03,32,-0.10
2016,12,09,03,33,-0.10
2016,12,09,03,34,-0.10
2016,12,09,03,35,-0.10
2016,12,09,03,36,-0.10
2016,12,09,03,37,0.00
2016,12,09,03,38,0.00
2016,12,09,03,39,0.00
2016,12,09,03,40,0.00
2016,12,09,03,41,0.00
2016,12,09,03,42,0.00
2016,12,09,03,43,0.00
2016,12,09,03,44,0.00
2016,12,09,03,45,0.00
2016,12,09,03,46,0.00
2016,12,09,03,47,-0.10
2016,12,09,03,48,-0.10
2016,12,09,03,49,-0.10
2016,12,09,03,50,-0.10
2016,12,09,03,51,-0.10
2016,12,09,03,52,-0.10
2016,12,09,03,53,-0.10
2016,12,09,03,54,-0.10
2016,12,09,03,55,-0.10
2016,12,09,03,56,-0.20
2016,12,09,03,57,-0.20
2016,12,09,03,58,-0.20
2016,12,09,03,59,-0.20
2016,12,09,04,00,-0.20
2016,12,09,04,01,-0.20
2016,12,09,04,02,-0.20
2016,12,09,04,03,-0.20
2016,12,09,04,04,-0.20
2016,12,09,04,05,-0.30
2016,12,09,04,06,-0.30
2016,12,09,04,07,-0.30
2016,12,09,04,08,-0.30
2016,12,09,04,09,-0.30
2016,12,09,04,10,-0.30
2016,12,09,04,11,-0.30
2016,12,09,04,12,-0.30
2016,12,09,04,13,-0.30
2016,12,09,04,14,-0.30
2016,12,09,04,15,-0.30
2016,12,09,04,16,-0.30
2016,12,09,04,17,-0.30
2016,12,09,04,18,-0.30
2016,12,09,04,19,-0.30
2016,12,09,04,20,-0.30
2016,12,09,04,21,-0.30
2016,12,09,04,22,-0.30
2016,12,09,04,23,-0.30
2016,12,09,04,24,-0.30
2016,12,09,04,25,-0.30
2016,12,09,04,26,-0.30
2016,12,09,04,27,-0.30
2016,12,09,04,28,-0.30
2016,12,09,04,29,-0.30
2016,12,09,04,30,-0.30
2016,12,09,04,31,-0.40
2016,12,09,04,32,-0.40
2016,12,09,04,33,-0.40
2016,12,09,04,34,-0.40
2016,12,09,04,35,-0.40
2016,12,09,04,36,-0.40
2016,12,09,04,37,-0.40
2016,12,09,04,38,-0.40
2016,12,09,04,39,-0.40
2016,12,09,04,40,-0.40
2016,12,09,04,41,-0.40
2016,12,09,04,42,-0.50
2016,12,09,04,43,-0.50
2016,12,09,04,44,-0.50
2016,12,09,04,45,-0.50
2016,12,09,04,46,-0.50
2016,12,09,04,47,-0.50
2016,12,09,04,48,-0.60
2016,12,09,04,49,-0.50
2016,12,09,04,50,-0.60
2016,12,09,04,51,-0.60
2016,12,09,04,52,-0.60
2016,12,09,04,53,-0.60
2016,12,09,04,54,-0.60
2016,12,09,04,55,-0.60
2016,12,09,04,56,-0.60
2016,12,09,04,57,-0.60
2016,12,09,04,58,-0.60
2016,12,09,04,59,-0.60
2016,12,09,05,00,-0.60
2016,12,09,05,01,-0.60
2016,12,09,05,02,-0.60
2016,12,09,05,03,-0.60
2016,12,09,05,04,-0.60
2016,12,09,05,05,-0.60
2016,12,09,05,06,-0.60
2016,12,09,05,07,-0.60
2016,12,09,05,08,-0.60
2016,12,09,05,09,-0.60
2016,12,09,05,10,-0.60
2016,12,09,05,11,-0.60
2016,12,09,05,12,-0.60
2016,12,09,05,13,-0.60
2016,12,09,05,14,-0.60
2016,12,09,05,15,-0.60
2016,12,09,05,16,-0.60
2016,12,09,05,17,-0.60
2016,12,09,05,18,-0.60
2016,12,09,05,19,-0.60
2016,12,09,05,20,-0.60
2016,12,09,05,21,-0.60
2016,12,09,05,22,-0.60
2016,12,09,05,23,-0.60
2016,12,09,05,24,-0.60
2016,12,09,05,25,-0.60
2016,12,09,05,26,-0.60
2016,12,09,05,27,-0.60
2016,12,09,05,28,-0.60
2016,12,09,05,29,-0.60
2016,12,09,05,30,-0.60
2016,12,09,05,31,-0.60
2016,12,09,05,32,-0.50
2016,12,09,05,33,-0.50
2016,12,09,05,34,-0.50
2016,12,09,05,35,-0.50
2016,12,09,05,36,-0.40
2016,12,09,05,37,-0.40
2016,12,09,05,38,-0.40
2016,12,09,05,39,-0.40
2016,12,09,05,40,-0.40
2016,12,09,05,41,-0.40
2016,12,09,05,42,-0.40
2016,12,09,05,43,-0.40
2016,12,09,05,44,-0.30
2016,12,09,05,45,-0.30
2016,12,09,05,46,-0.40
2016,12,09,05,47,-0.40
2016,12,09,05,48,-0.40
2016,12,09,05,49,-0.40
2016,12,09,05,50,-0.40
2016,12,09,05,51,-0.40
2016,12,09,05,52,-0.40
2016,12,09,05,53,-0.40
2016,12,09,05,54,-0.40
2016,12,09,05,55,-0.40
2016,12,09,05,56,-0.40
2016,12,09,05,57,-0.40
2016,12,09,05,58,-0.40
2016,12,09,05,59,-0.40
2016,12,09,06,00,-0.40
2016,12,09,06,01,-0.40
2016,12,09,06,02,-0.40
2016,12,09,06,03,-0.40
2016,12,09,06,04,-0.40
2016,12,09,06,05,-0.40
2016,12,09,06,06,-0.40
2016,12,09,06,07,-0.40
2016,12,09,06,08,-0.40
2016,12,09,06,09,-0.40
2016,12,09,06,10,-0.40
2016,12,09,06,11,-0.40
2016,12,09,06,12,-0.50
2016,12,09,06,13,-0.50
2016,12,09,06,14,-0.50
2016,12,09,06,15,-0.50
2016,12,09,06,16,-0.50
2016,12,09,06,17,-0.50
2016,12,09,06,18,-0.50
2016,12,09,06,19,-0.50
2016,12,09,06,20,-0.50
2016,12,09,06,21,-0.50
2016,12,09,06,22,-0.40
2016,12,09,06,23,-0.40
2016,12,09,06,24,-0.40
2016,12,09,06,25,-0.40
2016,12,09,06,26,-0.40
2016,12,09,06,27,-0.40
2016,12,09,06,28,-0.50
2016,12,09,06,29,-0.50
2016,12,09,06,30,-0.50
2016,12,09,06,31,-0.50
2016,12,09,06,32,-0.50
2016,12,09,06,33,-0.50
2016,12,09,06,34,-0.50
2016,12,09,06,35,-0.50
2016,12,09,06,36,-0.50
2016,12,09,06,37,-0.50
2016,12,09,06,38,-0.50
2016,12,09,06,39,-0.50
2016,12,09,06,40,-0.50
2016,12,09,06,41,-0.50
2016,12,09,06,42,-0.50
2016,12,09,06,43,-0.60
2016,12,09,06,44,-0.60
2016,12,09,06,45,-0.50
2016,12,09,06,46,-0.50
2016,12,09,06,47,-0.50
2016,12,09,06,48,-0.50
2016,12,09,06,49,-0.50
2016,12,09,06,50,-0.50
2016,12,09,06,51,-0.50
2016,12,09,06,52,-0.50
2016,12,09,06,53,-0.50
2016,12,09,06,54,-0.50
2016,12,09,06,55,-0.50
2016,12,09,06,56,-0.50
2016,12,09,06,57,-0.50
2016,12,09,06,58,-0.50
2016,12,09,06,59,-0.50
2016,12,09,07,00,-0.50
2016,12,09,07,01,-0.50
2016,12,09,07,02,-0.50
2016,12,09,07,03,-0.50
2016,12,09,07,04,-0.50
2016,12,09,07,05,-0.50
2016,12,09,07,06,-0.50
2016,12,09,07,07,-0.50
2016,12,09,07,08,-0.50
2016,12,09,07,09,-0.50
2016,12,09,07,10,-0.50
2016,12,09,07,11,-0.50
2016,12,09,07,12,-0.50
2016,12,09,07,13,-0.50
2016,12,09,07,14,-0.50
2016,12,09,07,15,-0.50
2016,12,09,07,16,-0.60
2016,12,09,07,17,-0.60
2016,12,09,07,18,-0.50
2016,12,09,07,19,-0.50
2016,12,09,07,20,-0.50
2016,12,09,07,21,-0.50
2016,12,09,07,22,-0.50
2016,12,09,07,23,-0.50
2016,12,09,07,24,-0.50
2016,12,09,07,25,-0.50
2016,12,09,07,26,-0.50
2016,12,09,07,27,-0.50
2016,12,09,07,28,-0.50
2016,12,09,07,29,-0.50
2016,12,09,07,30,-0.40
2016,12,09,07,31,-0.40
2016,12,09,07,32,-0.40
2016,12,09,07,33,-0.40
2016,12,09,07,34,-0.50
2016,12,09,07,35,-0.40
2016,12,09,07,36,-0.50
2016,12,09,07,37,-0.50
2016,12,09,07,38,-0.50
2016,12,09,07,39,-0.50
2016,12,09,07,40,-0.50
2016,12,09,07,41,-0.50
2016,12,09,07,42,-0.50
2016,12,09,07,43,-0.50
2016,12,09,07,44,-0.50
2016,12,09,07,45,-0.50
2016,12,09,07,46,-0.50
2016,12,09,07,47,-0.50
2016,12,09,07,48,-0.50
2016,12,09,07,49,-0.50
2016,12,09,07,50,-0.50
2016,12,09,07,51,-0.50
2016,12,09,07,52,-0.40
2016,12,09,07,53,-0.40
2016,12,09,07,54,-0.50
2016,12,09,07,55,-0.50
2016,12,09,07,56,-0.50
2016,12,09,07,57,-0.50
2016,12,09,07,58,-0.50
2016,12,09,07,59,-0.50
2016,12,09,08,00,-0.50
2016,12,09,08,01,-0.50
2016,12,09,08,02,-0.50
2016,12,09,08,03,-0.50
2016,12,09,08,04,-0.50
2016,12,09,08,05,-0.50
2016,12,09,08,06,-0.50
2016,12,09,08,07,-0.50
2016,12,09,08,08,-0.50
2016,12,09,08,09,-0.50
2016,12,09,08,10,-0.50
2016,12,09,08,11,-0.50
2016,12,09,08,12,-0.50
2016,12,09,08,13,-0.50
2016,12,09,08,14,-0.50
2016,12,09,08,15,-0.50
2016,12,09,08,16,-0.50
2016,12,09,08,17,-0.50
2016,12,09,08,18,-0.50
2016,12,09,08,19,-0.50
2016,12,09,08,20,-0.50
2016,12,09,08,21,-0.50
2016,12,09,08,22,-0.50
2016,12,09,08,23,-0.50
2016,12,09,08,24,-0.50
2016,12,09,08,25,-0.50
2016,12,09,08,26,-0.50
2016,12,09,08,27,-0.50
2016,12,09,08,28,-0.50
2016,12,09,08,29,-0.50
2016,12,09,08,30,-0.50
2016,12,09,08,31,-0.50
2016,12,09,08,32,-0.50
2016,12,09,08,33,-0.50
2016,12,09,08,34,-0.50
2016,12,09,08,35,-0.50
2016,12,09,08,36,-0.50
2016,12,09,08,37,-0.50
2016,12,09,08,38,-0.50
2016,12,09,08,39,-0.50
2016,12,09,08,40,-0.50
2016,12,09,08,41,-0.50
2016,12,09,08,42,-0.50
2016,12,09,08,43,-0.50
2016,12,09,08,44,-0.50
2016,12,09,08,45,-0.50
2016,12,09,08,46,-0.50
2016,12,09,08,47,-0.40
2016,12,09,08,48,-0.40
2016,12,09,08,49,-0.40
2016,12,09,08,50,-0.40
2016,12,09,08,51,-0.40
2016,12,09,08,52,-0.40
2016,12,09,08,53,-0.40
2016,12,09,08,54,-0.40
2016,12,09,08,55,-0.30
2016,12,09,08,56,-0.30
2016,12,09,08,57,-0.30
2016,12,09,08,58,-0.30
2016,12,09,08,59,-0.30
2016,12,09,09,00,-0.30
2016,12,09,09,01,-0.30
2016,12,09,09,02,-0.30
2016,12,09,09,03,-0.30
2016,12,09,09,04,-0.30
2016,12,09,09,05,-0.30
2016,12,09,09,06,-0.30
2016,12,09,09,07,-0.30
2016,12,09,09,08,-0.30
2016,12,09,09,09,-0.30
2016,12,09,09,10,-0.20
2016,12,09,09,11,-0.20
2016,12,09,09,12,-0.20
2016,12,09,09,13,-0.20
2016,12,09,09,14,-0.20
2016,12,09,09,15,-0.20
2016,12,09,09,16,-0.20
2016,12,09,09,17,-0.20
2016,12,09,09,18,-0.20
2016,12,09,09,19,-0.20
2016,12,09,09,20,-0.10
2016,12,09,09,21,-0.10
2016,12,09,09,22,-0.10
2016,12,09,09,23,-0.10
2016,12,09,09,24,-0.10
2016,12,09,09,25,-0.10
2016,12,09,09,26,-0.10
2016,12,09,09,27,0.00
2016,12,09,09,28,0.00
2016,12,09,09,29,0.00
2016,12,09,09,30,0.10
2016,12,09,09,31,0.10
2016,12,09,09,32,0.10
2016,12,09,09,33,0.10
2016,12,09,09,34,0.20
2016,12,09,09,35,0.20
2016,12,09,09,36,0.20
2016,12,09,09,37,0.20
2016,12,09,09,38,0.30
2016,12,09,09,39,0.30
2016,12,09,09,40,0.30
2016,12,09,09,41,0.30
2016,12,09,09,42,0.30
2016,12,09,09,43,0.30
2016,12,09,09,44,0.40
2016,12,09,09,45,0.40
2016,12,09,09,46,0.40
2016,12,09,09,47,0.40
2016,12,09,09,48,0.40
2016,12,09,09,49,0.40
2016,12,09,09,50,0.40
2016,12,09,09,51,0.40
2016,12,09,09,52,0.50
2016,12,09,09,53,0.50
2016,12,09,09,54,0.50
2016,12,09,09,55,0.50
2016,12,09,09,56,0.50
2016,12,09,09,57,0.50
2016,12,09,09,58,0.50
2016,12,09,09,59,0.50
2016,12,09,10,00,0.50
2016,12,09,10,01,0.50
2016,12,09,10,02,0.50
2016,12,09,10,03,0.50
2016,12,09,10,04,0.50
2016,12,09,10,05,0.50
2016,12,09,10,06,0.50
2016,12,09,10,07,0.50
2016,12,09,10,08,0.50
2016,12,09,10,09,0.50
2016,12,09,10,10,0.50
2016,12,09,10,11,0.50
2016,12,09,10,12,0.40
2016,12,09,10,13,0.40
2016,12,09,10,14,0.40
2016,12,09,10,15,0.50
2016,12,09,10,16,0.50
2016,12,09,10,17,0.50
2016,12,09,10,18,0.50
2016,12,09,10,19,0.50
2016,12,09,10,20,0.50
2016,12,09,10,21,0.50
2016,12,09,10,22,0.50
2016,12,09,10,23,0.50
2016,12,09,10,24,0.50
2016,12,09,10,25,0.60
2016,12,09,10,26,0.60
2016,12,09,10,27,0.60
2016,12,09,10,28,0.60
2016,12,09,10,29,0.60
2016,12,09,10,30,0.60
2016,12,09,10,31,0.60
2016,12,09,10,32,0.60
2016,12,09,10,33,0.60
2016,12,09,10,34,0.60
2016,12,09,10,35,0.60
2016,12,09,10,36,0.60
2016,12,09,10,37,0.60
2016,12,09,10,38,0.60
2016,12,09,10,39,0.60
2016,12,09,10,40,0.60
2016,12,09,10,41,0.60
2016,12,09,10,42,0.60
2016,12,09,10,43,0.60
2016,12,09,10,44,0.60
2016,12,09,10,45,0.60
2016,12,09,10,46,0.60
2016,12,09,10,47,0.60
2016,12,09,10,48,0.60
2016,12,09,10,49,0.60
2016,12,09,10,50,0.60
2016,12,09,10,51,0.50
2016,12,09,10,52,0.50
2016,12,09,10,53,0.50
2016,12,09,10,54,0.50
2016,12,09,10,55,0.60
2016,12,09,10,56,0.50
2016,12,09,10,57,0.50
2016,12,09,10,58,0.50
2016,12,09,10,59,0.50
2016,12,09,11,00,0.50
2016,12,09,11,01,0.50
2016,12,09,11,02,0.40
2016,12,09,11,03,0.40
2016,12,09,11,04,0.40
2016,12,09,11,05,0.40
2016,12,09,11,06,0.40
2016,12,09,11,07,0.40
2016,12,09,11,08,0.30
2016,12,09,11,09,0.30
2016,12,09,11,10,0.30
2016,12,09,11,11,0.30
2016,12,09,11,12,0.30
2016,12,09,11,13,0.30
2016,12,09,11,14,0.30
2016,12,09,11,15,0.30
2016,12,09,11,16,0.30
2016,12,09,11,17,0.30
2016,12,09,11,18,0.20
2016,12,09,11,19,0.30
2016,12,09,11,20,0.20
2016,12,09,11,21,0.20
2016,12,09,11,22,0.20
2016,12,09,11,23,0.20
2016,12,09,11,24,0.20
2016,12,09,11,25,0.20
2016,12,09,11,26,0.20
2016,12,09,11,27,0.20
2016,12,09,11,28,0.20
2016,12,09,11,29,0.20
2016,12,09,11,30,0.20
2016,12,09,11,31,0.30
2016,12,09,11,32,0.20
2016,12,09,11,33,0.20
2016,12,09,11,34,0.20
2016,12,09,11,35,0.20
2016,12,09,11,36,0.20
2016,12,09,11,37,0.20
2016,12,09,11,38,0.20
2016,12,09,11,39,0.20
2016,12,09,11,40,0.20
2016,12,09,11,41,0.20
2016,12,09,11,42,0.20
2016,12,09,11,43,0.20
2016,12,09,11,44,0.20
2016,12,09,11,45,0.20
2016,12,09,11,46,0.20
2016,12,09,11,47,0.20
2016,12,09,11,48,0.20
2016,12,09,11,49,0.20
2016,12,09,11,50,0.30
2016,12,09,11,51,0.30
2016,12,09,11,52,0.30
2016,12,09,11,53,0.30
2016,12,09,11,54,0.30
2016,12,09,11,55,0.30
2016,12,09,11,56,0.30
2016,12,09,11,57,0.30
2016,12,09,11,58,0.30
2016,12,09,11,59,0.30
2016,12,09,12,00,0.30
2016,12,09,12,01,0.30
2016,12,09,12,02,0.30
2016,12,09,12,03,0.30
2016,12,09,12,04,0.30
2016,12,09,12,05,0.40
2016,12,09,12,06,0.40
2016,12,09,12,07,0.40
2016,12,09,12,08,0.40
2016,12,09,12,09,0.40
2016,12,09,12,10,0.40
2016,12,09,12,11,0.40
2016,12,09,12,12,0.40
2016,12,09,12,13,0.40
2016,12,09,12,14,0.40
2016,12,09,12,15,0.40
2016,12,09,12,16,0.40
2016,12,09,12,17,0.40
2016,12,09,12,18,0.40
2016,12,09,12,19,0.40
2016,12,09,12,20,0.40
2016,12,09,12,21,0.50
2016,12,09,12,22,0.50
2016,12,09,12,23,0.50
2016,12,09,12,24,0.50
2016,12,09,12,25,0.60
2016,12,09,12,26,0.60
2016,12,09,12,27,0.60
2016,12,09,12,28,0.60
2016,12,09,12,29,0.60
2016,12,09,12,30,0.60
2016,12,09,12,31,0.60
2016,12,09,12,32,0.60
2016,12,09,12,33,0.60
2016,12,09,12,34,0.60
2016,12,09,12,35,0.60
2016,12,09,12,36,0.60
2016,12,09,12,37,0.60
2016,12,09,12,38,0.60
2016,12,09,12,39,0.60
2016,12,09,12,40,0.60
2016,12,09,12,41,0.60
2016,12,09,12,42,0.60
2016,12,09,12,43,0.60
2016,12,09,12,44,0.60
2016,12,09,12,45,0.60
2016,12,09,12,46,0.60
2016,12,09,12,47,0.60
2016,12,09,12,48,0.60
2016,12,09,12,49,0.60
2016,12,09,12,50,0.60
2016,12,09,12,51,0.60
2016,12,09,12,52,0.60
2016,12,09,12,53,0.60
2016,12,09,12,54,0.60
2016,12,09,12,55,0.60
2016,12,09,12,56,0.60
2016,12,09,12,57,0.60
2016,12,09,12,58,0.60
2016,12,09,12,59,0.60
2016,12,09,13,00,0.60
2016,12,09,13,01,0.60
2016,12,09,13,02,0.60
2016,12,09,13,03,0.60
2016,12,09,13,04,0.60
2016,12,09,13,05,0.60
2016,12,09,13,06,0.60
2016,12,09,13,07,0.60
2016,12,09,13,08,0.60
2016,12,09,13,09,0.60
2016,12,09,13,10,0.60
2016,12,09,13,11,0.60
2016,12,09,13,12,0.60
2016,12,09,13,13,0.60
2016,12,09,13,14,0.60
2016,12,09,13,15,0.60
2016,12,09,13,16,0.60
2016,12,09,13,17,0.70
2016,12,09,13,18,0.70
2016,12,09,13,19,0.70
2016,12,09,13,20,0.70
2016,12,09,13,21,0.70
2016,12,09,13,22,0.70
2016,12,09,13,23,0.70
2016,12,09,13,24,0.70
2016,12,09,13,25,0.70
2016,12,09,13,26,0.70
2016,12,09,13,27,0.70
2016,12,09,13,28,0.70
2016,12,09,13,29,0.70
2016,12,09,13,30,0.70
2016,12,09,13,31,0.70
2016,12,09,13,32,0.70
2016,12,09,13,33,0.70
2016,12,09,13,34,0.70
2016,12,09,13,35,0.70
2016,12,09,13,36,0.70
2016,12,09,13,37,0.70
2016,12,09,13,38,0.70
2016,12,09,13,39,0.70
2016,12,09,13,40,0.70
2016,12,09,13,41,0.70
2016,12,09,13,42,0.70
2016,12,09,13,43,0.70
2016,12,09,13,44,0.80
2016,12,09,13,45,0.80
2016,12,09,13,46,0.80
2016,12,09,13,47,0.80
2016,12,09,13,48,0.80
2016,12,09,13,49,0.80
2016,12,09,13,50,0.80
2016,12,09,13,51,0.80
2016,12,09,13,52,0.90
2016,12,09,13,53,0.90
2016,12,09,13,54,0.90
2016,12,09,13,55,0.90
2016,12,09,13,56,0.90
2016,12,09,13,57,0.90
2016,12,09,13,58,0.90
2016,12,09,13,59,0.90
2016,12,09,14,00,1.00
2016,12,09,14,01,1.00
2016,12,09,14,02,1.00
2016,12,09,14,03,1.00
2016,12,09,14,04,1.00
2016,12,09,14,05,1.00
2016,12,09,14,06,1.00
2016,12,09,14,07,1.00
2016,12,09,14,08,1.10
2016,12,09,14,09,1.10
2016,12,09,14,10,1.10
2016,12,09,14,11,1.10
2016,12,09,14,12,1.20
2016,12,09,14,13,1.20
2016,12,09,14,14,1.20
2016,12,09,14,15,1.20
2016,12,09,14,16,1.20
2016,12,09,14,17,1.20
2016,12,09,14,18,1.20
2016,12,09,14,19,1.20
2016,12,09,14,20,1.20
2016,12,09,14,21,1.20
2016,12,09,14,22,1.20
2016,12,09,14,23,1.20
2016,12,09,14,24,1.20
2016,12,09,14,25,1.20
2016,12,09,14,26,1.20
2016,12,09,14,27,1.20
2016,12,09,14,28,1.20
2016,12,09,14,29,1.20
2016,12,09,14,30,1.20
2016,12,09,14,31,1.20
2016,12,09,14,32,1.20
2016,12,09,14,33,1.10
2016,12,09,14,34,1.10
2016,12,09,14,35,1.10
2016,12,09,14,36,1.10
2016,12,09,14,37,1.10
2016,12,09,14,38,1.10
2016,12,09,14,39,1.10
2016,12,09,14,40,1.10
2016,12,09,14,41,1.10
2016,12,09,14,42,1.10
2016,12,09,14,43,1.10
2016,12,09,14,44,1.10
2016,12,09,14,45,1.10
2016,12,09,14,46,1.00
2016,12,09,14,47,1.00
2016,12,09,14,48,1.00
2016,12,09,14,49,1.00
2016,12,09,14,50,1.00
2016,12,09,14,51,1.00
2016,12,09,14,52,1.10
2016,12,09,14,53,1.10
2016,12,09,14,54,1.10
2016,12,09,14,55,1.10
2016,12,09,14,56,1.10
2016,12,09,14,57,1.00
2016,12,09,14,58,1.00
2016,12,09,14,59,1.00
2016,12,09,15,00,1.00
2016,12,09,15,01,1.00
2016,12,09,15,02,1.00
2016,12,09,15,03,1.00
2016,12,09,15,04,1.00
2016,12,09,15,05,1.00
2016,12,09,15,06,1.00
2016,12,09,15,07,1.10
2016,12,09,15,08,1.10
2016,12,09,15,09,1.10
2016,12,09,15,10,1.00
2016,12,09,15,11,1.00
2016,12,09,15,12,1.00
2016,12,09,15,13,1.00
2016,12,09,15,14,1.00
2016,12,09,15,15,1.00
2016,12,09,15,16,1.00
2016,12,09,15,17,1.00
2016,12,09,15,18,1.00
2016,12,09,15,19,1.00
2016,12,09,15,20,1.00
2016,12,09,15,21,1.00
2016,12,09,15,22,1.00
2016,12,09,15,23,1.00
2016,12,09,15,24,1.00
2016,12,09,15,25,0.90
2016,12,09,15,26,1.00
2016,12,09,15,27,1.00
2016,12,09,15,28,1.00
2016,12,09,15,29,1.00
2016,12,09,15,30,1.00
2016,12,09,15,31,1.00
2016,12,09,15,32,1.00
2016,12,09,15,33,0.90
2016,12,09,15,34,0.90
2016,12,09,15,35,0.90
2016,12,09,15,36,0.90
2016,12,09,15,37,0.90
2016,12,09,15,38,0.90
2016,12,09,15,39,0.90
2016,12,09,15,40,0.90
2016,12,09,15,41,0.90
2016,12,09,15,42,0.90
2016,12,09,15,43,0.90
2016,12,09,15,44,0.90
2016,12,09,15,45,0.90
2016,12,09,15,46,0.90
2016,12,09,15,47,0.90
2016,12,09,15,48,0.90
2016,12,09,15,49,0.90
2016,12,09,15,50,0.90
2016,12,09,15,51,0.90
2016,12,09,15,52,0.90
2016,12,09,15,53,0.90
2016,12,09,15,54,0.90
2016,12,09,15,55,0.80
2016,12,09,15,56,0.80
2016,12,09,15,57,0.80
2016,12,09,15,58,0.80
2016,12,09,15,59,0.80
2016,12,09,16,00,0.80
2016,12,09,16,01,0.80
2016,12,09,16,02,0.80
2016,12,09,16,03,0.80
2016,12,09,16,04,0.90
2016,12,09,16,05,0.80
2016,12,09,16,06,0.80
2016,12,09,16,07,0.80
2016,12,09,16,08,0.80
2016,12,09,16,09,0.80
2016,12,09,16,10,0.80
2016,12,09,16,11,0.80
2016,12,09,16,12,0.80
2016,12,09,16,13,0.80
2016,12,09,16,14,0.80
2016,12,09,16,15,0.80
2016,12,09,16,16,0.80
2016,12,09,16,17,0.80
2016,12,09,16,18,0.80
2016,12,09,16,19,0.80
2016,12,09,16,20,0.80
2016,12,09,16,21,0.80
2016,12,09,16,22,0.80
2016,12,09,16,23,0.80
2016,12,09,16,24,0.80
2016,12,09,16,25,0.80
2016,12,09,16,26,0.80
2016,12,09,16,27,0.80
2016,12,09,16,28,0.80
2016,12,09,16,29,0.80
2016,12,09,16,30,0.80
2016,12,09,16,31,0.90
2016,12,09,16,32,0.90
2016,12,09,16,33,0.80
2016,12,09,16,34,0.90
2016,12,09,16,35,0.80
2016,12,09,16,36,0.80
2016,12,09,16,37,0.80
2016,12,09,16,38,0.80
2016,12,09,16,39,0.80
2016,12,09,16,40,0.80
2016,12,09,16,41,0.90
2016,12,09,16,42,0.90
2016,12,09,16,43,0.90
2016,12,09,16,44,0.90
2016,12,09,16,45,0.90
2016,12,09,16,46,0.90
2016,12,09,16,47,0.90
2016,12,09,16,48,0.90
2016,12,09,16,49,0.90
2016,12,09,16,50,0.90
2016,12,09,16,51,0.90
2016,12,09,16,52,0.90
2016,12,09,16,53,0.90
2016,12,09,16,54,0.90
2016,12,09,16,55,0.90
2016,12,09,16,56,0.90
2016,12,09,16,57,0.90
2016,12,09,16,58,0.90
2016,12,09,16,59,0.90
2016,12,09,17,00,0.90
2016,12,09,17,01,0.90
2016,12,09,17,02,0.90
2016,12,09,17,03,0.90
2016,12,09,17,04,0.90
2016,12,09,17,05,0.90
2016,12,09,17,06,0.90
2016,12,09,17,07,0.90
2016,12,09,17,08,0.90
2016,12,09,17,09,0.90
2016,12,09,17,10,0.90
2016,12,09,17,11,0.90
2016,12,09,17,12,0.90
2016,12,09,17,13,0.90
2016,12,09,17,14,0.80
2016,12,09,17,15,0.80
2016,12,09,17,16,0.80
2016,12,09,17,17,0.80
2016,12,09,17,18,0.80
2016,12,09,17,19,0.80
2016,12,09,17,20,0.80
2016,12,09,17,21,0.80
2016,12,09,17,22,0.80
2016,12,09,17,23,0.80
2016,12,09,17,24,0.80
2016,12,09,17,25,0.70
2016,12,09,17,26,0.70
2016,12,09,17,27,0.70
2016,12,09,17,28,0.70
2016,12,09,17,29,0.70
2016,12,09,17,30,0.70
2016,12,09,17,31,0.70
2016,12,09,17,32,0.70
2016,12,09,17,33,0.70
2016,12,09,17,34,0.70
2016,12,09,17,35,0.70
2016,12,09,17,36,0.70
2016,12,09,17,37,0.70
2016,12,09,17,38,0.60
2016,12,09,17,39,0.60
2016,12,09,17,40,0.60
2016,12,09,17,41,0.60
2016,12,09,17,42,0.60
2016,12,09,17,43,0.60